Powrót do katalogu

ARIANE 44P R/B

AktywnyHEO
NORAD 25461·ROCKET BODY·🇫🇷 France

Wystrzelony Aug 25, 1998 z Guiana Space Centre

Loading…

Następne Przeloty (najbliższe 24 godziny)

TLE

ŚwieżeSource: Space-Track

Epoka: Sep 14, 2026, 08:31 UTC

1 25461U 98049B   26257.35488339  .00008134  00000-0  13707-2 0  9999
2 25461   4.0543 237.4998 5865612 258.6920  33.5426  4.25101383308318

Śledź ARIANE 44P R/B w czasie rzeczywistym z AllMySat

Download on the App Store